| time (UTC) | temp F | wind direction | speed MPH | gust MPH | rain 1hr in | rain 24hr in | rain mn in | humidity % | barometer mb |
| 20260510074803 | 61 | 270 | 1.0 | 2.0 | 0.00 | 0.35 | 0.00 | 83 | 1011.8 |
| 20260510074303 | 61 | 275 | 1.0 | 3.0 | 0.00 | 0.35 | 0.00 | 83 | 1011.7 |
| 20260510073804 | 60 | 278 | 0.0 | 3.0 | 0.00 | 0.35 | 0.00 | 83 | 1011.6 |
| 20260510073304 | 60 | 264 | 0.0 | 2.0 | 0.00 | 0.35 | 0.00 | 85 | 1011.6 |
| 20260510072803 | 59 | 265 | 1.0 | 2.0 | 0.00 | 0.35 | 0.00 | 85 | 1011.7 |
| 20260510071804 | 59 | 273 | 1.0 | 6.0 | 0.00 | 0.35 | 0.00 | 86 | 1011.6 |
| 20260510071304 | 59 | 267 | 1.0 | 3.0 | 0.00 | 0.35 | 0.00 | 86 | 1011.6 |
| 20260510070804 | 59 | 271 | 1.0 | 3.0 | 0.00 | 0.35 | 0.00 | 88 | 1011.6 |
| 20260510070303 | 58 | 276 | 2.0 | 5.0 | 0.00 | 0.35 | 0.00 | 88 | 1011.6 |
| 20260510065803 | 58 | 276 | 1.0 | 3.0 | 0.00 | 0.35 | 0.00 | 89 | 1011.6 |
| 20260510064803 | 57 | 327 | 0.0 | 0.0 | 0.00 | 0.35 | 0.00 | 90 | 1011.6 |
| 20260510064304 | 57 | 327 | 0.0 | 1.0 | 0.00 | 0.35 | 0.00 | 90 | 1011.6 |
| 20260510063303 | 56 | 269 | 1.0 | 2.0 | 0.00 | 0.35 | 0.00 | 92 | 1011.6 |
| 20260510062804 | 56 | 304 | 0.0 | 1.0 | 0.00 | 0.35 | 0.00 | 94 | 1011.6 |
| 20260510062306 | 55 | 304 | 1.0 | 2.0 | 0.00 | 0.35 | 0.00 | 94 | 1011.5 |
| 20260510061804 | 55 | 332 | 0.0 | 0.0 | 0.00 | 0.35 | 0.00 | 94 | 1011.5 |
| 20260510061303 | 54 | 332 | 0.0 | 0.0 | 0.00 | 0.35 | 0.00 | 96 | 1011.5 |
| 20260510060804 | 54 | 332 | 0.0 | 0.0 | 0.00 | 0.35 | 0.00 | 97 | 1011.5 |
| 20260510060303 | 52 | 332 | 0.0 | 0.0 | 0.00 | 0.35 | 0.00 | 96 | 1011.4 |
| 20260510055804 | 52 | 332 | 0.0 | 0.0 | 0.00 | 0.35 | 0.00 | 96 | 1011.4 |
| 20260510055306 | 52 | 332 | 0.0 | 0.0 | 0.00 | 0.35 | 0.00 | 96 | 1011.5 |
| 20260510054803 | 52 | 332 | 0.0 | 0.0 | 0.00 | 0.35 | 0.00 | 96 | 1011.5 |
| 20260510054303 | 51 | 332 | 0.0 | 0.0 | 0.00 | 0.35 | 0.00 | 96 | 1011.5 |
| 20260510053803 | 51 | 332 | 0.0 | 0.0 | 0.00 | 0.35 | 0.00 | 96 | 1011.5 |
| 20260510053304 | 51 | 324 | 0.0 | 0.0 | 0.00 | 0.35 | 0.00 | 96 | 1011.4 |
| 20260510052804 | 51 | 324 | 0.0 | 0.0 | 0.00 | 0.35 | 0.00 | 96 | 1011.4 |
| 20260510052306 | 51 | 324 | 0.0 | 0.0 | 0.00 | 0.35 | 0.00 | 96 | 1011.4 |
| 20260510051803 | 52 | 320 | 0.0 | 0.0 | 0.00 | 0.35 | 0.00 | 96 | 1011.4 |
| 20260510050803 | 52 | 327 | 0.0 | 0.0 | 0.00 | 0.35 | 0.00 | 96 | 1011.4 |
| 20260510050303 | 52 | 327 | 0.0 | 0.0 | 0.00 | 0.35 | 0.00 | 96 | 1011.3 |
| 20260510045804 | 52 | 327 | 0.0 | 0.0 | 0.00 | 0.35 | 0.00 | 96 | 1011.3 |
| 20260510044804 | 52 | 327 | 0.0 | 0.0 | 0.00 | 0.35 | 0.00 | 96 | 1011.4 |
| 20260510044303 | 52 | 327 | 0.0 | 0.0 | 0.00 | 0.35 | 0.00 | 96 | 1011.4 |
| 20260510043803 | 52 | 327 | 0.0 | 0.0 | 0.00 | 0.35 | 0.00 | 96 | 1011.5 |
| 20260510043304 | 52 | 327 | 0.0 | 0.0 | 0.00 | 0.35 | 0.00 | 96 | 1011.5 |
| 20260510042803 | 52 | 327 | 0.0 | 0.0 | 0.00 | 0.35 | 0.00 | 96 | 1011.6 |
| 20260510042306 | 52 | 327 | 0.0 | 0.0 | 0.00 | 0.35 | 0.00 | 96 | 1011.6 |
| 20260510041804 | 52 | 327 | 0.0 | 0.0 | 0.00 | 0.35 | 0.00 | 96 | 1011.5 |
| 20260510041304 | 53 | 327 | 0.0 | 0.0 | 0.00 | 0.35 | 0.00 | 96 | 1011.5 |
| 20260510040803 | 52 | 327 | 0.0 | 0.0 | 0.00 | 0.35 | 0.00 | 96 | 1011.5 |
| 20260510040304 | 52 | 327 | 0.0 | 0.0 | 0.00 | 0.35 | 0.00 | 96 | 1011.5 |
| 20260510035803 | 53 | 327 | 0.0 | 0.0 | 0.00 | 0.35 | 0.00 | 96 | 1011.5 |
| 20260510035306 | 53 | 327 | 0.0 | 1.0 | 0.00 | 0.35 | 0.00 | 96 | 1011.6 |
| 20260510034804 | 53 | 327 | 0.0 | 0.0 | 0.00 | 0.35 | 0.00 | 96 | 1011.6 |
| 20260510034304 | 53 | 332 | 0.0 | 1.0 | 0.00 | 0.35 | 0.00 | 96 | 1011.5 |
| 20260510033804 | 53 | 323 | 0.0 | 0.0 | 0.00 | 0.35 | 0.00 | 96 | 1011.5 |
| 20260510033304 | 53 | 323 | 0.0 | 0.0 | 0.00 | 0.35 | 0.00 | 96 | 1011.6 |
| 20260510032804 | 53 | 323 | 0.0 | 0.0 | 0.00 | 0.35 | 0.00 | 96 | 1011.6 |
| 20260510031804 | 53 | 321 | 0.0 | 1.0 | 0.00 | 0.35 | 0.00 | 95 | 1011.6 |
| 20260510031304 | 53 | 320 | 0.0 | 0.0 | 0.00 | 0.35 | 0.00 | 95 | 1011.6 |
| 20260510030804 | 53 | 320 | 0.0 | 0.0 | 0.00 | 0.35 | 0.00 | 95 | 1011.5 |
| 20260510025804 | 53 | 320 | 0.0 | 0.0 | 0.00 | 0.35 | 0.00 | 95 | 1011.6 |
| 20260510025306 | 54 | 320 | 0.0 | 1.0 | 0.00 | 0.35 | 0.00 | 95 | 1011.6 |
| 20260510024804 | 54 | 320 | 0.0 | 0.0 | 0.00 | 0.35 | 0.00 | 95 | 1011.7 |
| 20260510023804 | 54 | 320 | 0.0 | 0.0 | 0.00 | 0.35 | 0.00 | 95 | 1011.7 |
| 20260510023304 | 54 | 320 | 0.0 | 0.0 | 0.00 | 0.35 | 0.00 | 95 | 1011.8 |
| 20260510022804 | 54 | 320 | 0.0 | 0.0 | 0.00 | 0.35 | 0.00 | 95 | 1011.9 |
| 20260510022306 | 54 | 320 | 0.0 | 0.0 | 0.00 | 0.35 | 0.00 | 95 | 1011.9 |
| 20260510021804 | 55 | 320 | 0.0 | 0.0 | 0.00 | 0.35 | 0.00 | 96 | 1011.9 |
| 20260510021304 | 55 | 320 | 0.0 | 2.0 | 0.00 | 0.35 | 0.00 | 96 | 1011.9 |
| 20260510020803 | 55 | 330 | 1.0 | 2.0 | 0.00 | 0.35 | 0.00 | 96 | 1011.9 |
| 20260510015805 | 55 | 329 | 0.0 | 1.0 | 0.00 | 0.35 | 0.00 | 95 | 1011.9 |
| 20260510015306 | 55 | 329 | 0.0 | 1.0 | 0.00 | 0.35 | 0.00 | 96 | 1011.9 |
| 20260510013804 | 55 | 331 | 0.0 | 1.0 | 0.00 | 0.35 | 0.00 | 95 | 1011.7 |
| 20260510013304 | 55 | 262 | 0.0 | 1.0 | 0.00 | 0.35 | 0.00 | 96 | 1011.7 |
| 20260510012803 | 55 | 262 | 1.0 | 2.0 | 0.00 | 0.35 | 0.00 | 96 | 1011.6 |
| 20260510012307 | 55 | 271 | 0.0 | 1.0 | 0.00 | 0.35 | 0.00 | 95 | 1011.5 |
| 20260510011804 | 55 | 271 | 0.0 | 1.0 | 0.00 | 0.35 | 0.00 | 95 | 1011.6 |
| 20260510010803 | 55 | 272 | 0.0 | 0.0 | 0.00 | 0.35 | 0.00 | 96 | 1011.6 |
| 20260510010303 | 55 | 272 | 0.0 | 1.0 | 0.00 | 0.35 | 0.00 | 96 | 1011.6 |
| 20260510005803 | 55 | 271 | 0.0 | 1.0 | 0.00 | 0.35 | 0.00 | 96 | 1011.7 |
| 20260510005306 | 55 | 271 | 0.0 | 1.0 | 0.00 | 0.35 | 0.00 | 95 | 1011.7 |
| 20260510004303 | 54 | 323 | 0.0 | 1.0 | 0.00 | 0.35 | 0.00 | 95 | 1011.8 |
| 20260510003803 | 54 | 325 | 0.0 | 0.0 | 0.00 | 0.35 | 0.00 | 95 | 1011.8 |
| 20260510003304 | 54 | 325 | 0.0 | 0.0 | 0.00 | 0.35 | 0.00 | 95 | 1011.8 |
| 20260510002803 | 55 | 325 | 0.0 | 0.0 | 0.00 | 0.35 | 0.00 | 95 | 1011.9 |
| 20260510002306 | 55 | 325 | 0.0 | 0.0 | 0.00 | 0.35 | 0.00 | 95 | 1011.9 |
| 20260510001803 | 55 | 325 | 0.0 | 0.0 | 0.00 | 0.35 | 0.00 | 95 | 1012.0 |
| 20260510001303 | 55 | 325 | 0.0 | 0.0 | 0.00 | 0.35 | 0.00 | 95 | 1012.0 |
| 20260510000802 | 55 | 325 | 0.0 | 1.0 | 0.00 | 0.35 | 0.00 | 95 | 1012.0 |
| 20260510000304 | 55 | 325 | 0.0 | 1.0 | 0.00 | 0.35 | 0.00 | 95 | 1012.1 |
| 20260509235803 | 55 | 325 | 0.0 | 0.0 | 0.00 | 0.35 | 0.00 | 95 | 1012.2 |
| 20260509235306 | 55 | 325 | 0.0 | 0.0 | 0.00 | 0.35 | 0.00 | 95 | 1012.4 |
| 20260509234303 | 55 | 325 | 0.0 | 0.0 | 0.00 | 0.35 | 0.00 | 95 | 1012.6 |
| 20260509233803 | 55 | 325 | 0.0 | 0.0 | 0.00 | 0.35 | 0.00 | 95 | 1012.6 |
| 20260509233303 | 55 | 325 | 0.0 | 1.0 | 0.00 | 0.35 | 0.00 | 94 | 1012.6 |
| 20260509232804 | 55 | 325 | 0.0 | 1.0 | 0.00 | 0.35 | 0.00 | 94 | 1012.5 |
| 20260509232306 | 56 | 325 | 1.0 | 2.0 | 0.00 | 0.35 | 0.00 | 95 | 1012.5 |
| 20260509231803 | 56 | 328 | 0.0 | 0.0 | 0.00 | 0.35 | 0.00 | 94 | 1012.5 |
| 20260509231303 | 56 | 328 | 0.0 | 0.0 | 0.00 | 0.35 | 0.00 | 94 | 1012.5 |
| 20260509230303 | 56 | 328 | 0.0 | 0.0 | 0.00 | 0.35 | 0.00 | 94 | 1012.5 |
| 20260509225803 | 56 | 328 | 0.0 | 0.0 | 0.00 | 0.35 | 0.00 | 94 | 1012.6 |
| 20260509225305 | 56 | 328 | 0.0 | 0.0 | 0.00 | 0.35 | 0.00 | 94 | 1012.6 |
| 20260509224803 | 56 | 328 | 0.0 | 0.0 | 0.00 | 0.35 | 0.00 | 94 | 1012.6 |
| 20260509224303 | 56 | 328 | 0.0 | 0.0 | 0.00 | 0.35 | 0.00 | 94 | 1012.6 |
| 20260509223803 | 56 | 328 | 0.0 | 0.0 | 0.00 | 0.35 | 0.00 | 94 | 1012.5 |
| 20260509223303 | 57 | 328 | 0.0 | 0.0 | 0.00 | 0.35 | 0.00 | 94 | 1012.5 |
| 20260509222803 | 57 | 328 | 0.0 | 0.0 | 0.00 | 0.35 | 0.00 | 94 | 1012.5 |
| 20260509222306 | 57 | 328 | 0.0 | 0.0 | 0.00 | 0.35 | 0.00 | 94 | 1012.6 |
| 20260509221803 | 57 | 328 | 0.0 | 0.0 | 0.00 | 0.35 | 0.00 | 94 | 1012.5 |
| 20260509221303 | 57 | 328 | 0.0 | 0.0 | 0.00 | 0.35 | 0.00 | 94 | 1012.5 |
| 20260509220811 | 58 | 328 | 0.0 | 0.0 | 0.00 | 0.35 | 0.00 | 94 | 1012.4 |
| 20260509215803 | 58 | 328 | 0.0 | 0.0 | 0.00 | 0.35 | 0.35 | 94 | 1012.5 |
| 20260509215305 | 58 | 328 | 0.0 | 0.0 | 0.00 | 0.35 | 0.35 | 94 | 1012.4 |
| 20260509214803 | 58 | 328 | 0.0 | 0.0 | 0.00 | 0.35 | 0.35 | 94 | 1012.4 |
| 20260509214303 | 58 | 328 | 0.0 | 0.0 | 0.00 | 0.35 | 0.35 | 94 | 1012.5 |
| 20260509213804 | 58 | 328 | 0.0 | 0.0 | 0.00 | 0.35 | 0.35 | 94 | 1012.6 |
| 20260509213302 | 58 | 328 | 0.0 | 1.0 | 0.00 | 0.35 | 0.35 | 93 | 1012.5 |
| 20260509212803 | 58 | 328 | 0.0 | 0.0 | 0.00 | 0.35 | 0.35 | 93 | 1012.5 |
| 20260509211304 | 58 | 328 | 0.0 | 0.0 | 0.00 | 0.35 | 0.35 | 93 | 1012.4 |
| 20260509210803 | 58 | 328 | 0.0 | 1.0 | 0.00 | 0.35 | 0.35 | 93 | 1012.4 |
| 20260509210303 | 58 | 328 | 0.0 | 0.0 | 0.00 | 0.35 | 0.35 | 93 | 1012.3 |
| 20260509205306 | 58 | 328 | 0.0 | 1.0 | 0.00 | 0.35 | 0.35 | 93 | 1012.3 |
| 20260509204804 | 58 | 328 | 0.0 | 0.0 | 0.00 | 0.35 | 0.35 | 93 | 1012.3 |
| 20260509204303 | 58 | 328 | 0.0 | 0.0 | 0.00 | 0.35 | 0.35 | 93 | 1012.2 |
| 20260509203803 | 58 | 328 | 0.0 | 0.0 | 0.00 | 0.35 | 0.35 | 93 | 1012.2 |
| 20260509203303 | 58 | 328 | 0.0 | 0.0 | 0.00 | 0.35 | 0.35 | 93 | 1012.1 |
| 20260509202803 | 58 | 328 | 0.0 | 0.0 | 0.00 | 0.35 | 0.35 | 93 | 1012.0 |
| 20260509202306 | 58 | 328 | 0.0 | 1.0 | 0.00 | 0.35 | 0.35 | 93 | 1011.8 |
| 20260509201803 | 58 | 327 | 1.0 | 2.0 | 0.00 | 0.35 | 0.35 | 93 | 1011.8 |
| 20260509201303 | 58 | 326 | 0.0 | 0.0 | 0.00 | 0.35 | 0.35 | 93 | 1011.7 |
| 20260509200804 | 58 | 325 | 0.0 | 0.0 | 0.00 | 0.35 | 0.35 | 93 | 1011.7 |
| 20260509200303 | 58 | 325 | 0.0 | 0.0 | 0.00 | 0.35 | 0.35 | 93 | 1011.5 |
| 20260509195803 | 58 | 326 | 0.0 | 0.0 | 0.00 | 0.35 | 0.35 | 93 | 1011.4 |
| 20260509195306 | 58 | 326 | 0.0 | 0.0 | 0.00 | 0.35 | 0.35 | 93 | 1011.3 |
| 20260509194803 | 58 | 326 | 0.0 | 0.0 | 0.00 | 0.35 | 0.35 | 93 | 1011.2 |
| 20260509194303 | 58 | 325 | 0.0 | 0.0 | 0.00 | 0.35 | 0.35 | 93 | 1011.1 |
| 20260509193803 | 58 | 325 | 0.0 | 0.0 | 0.00 | 0.35 | 0.35 | 93 | 1011.1 |
| 20260509193304 | 58 | 325 | 0.0 | 0.0 | 0.00 | 0.35 | 0.35 | 93 | 1011.0 |
| 20260509192803 | 58 | 325 | 0.0 | 1.0 | 0.00 | 0.35 | 0.35 | 93 | 1010.9 |
| 20260509192305 | 58 | 326 | 0.0 | 0.0 | 0.00 | 0.35 | 0.35 | 93 | 1010.9 |
| 20260509191803 | 58 | 326 | 0.0 | 0.0 | 0.00 | 0.35 | 0.35 | 93 | 1010.9 |
| 20260509191303 | 58 | 326 | 0.0 | 0.0 | 0.00 | 0.35 | 0.35 | 93 | 1010.8 |
| 20260509190804 | 58 | 326 | 0.0 | 0.0 | 0.00 | 0.35 | 0.35 | 93 | 1010.7 |
| 20260509190303 | 58 | 326 | 0.0 | 0.0 | 0.00 | 0.35 | 0.35 | 93 | 1010.7 |
| 20260509185803 | 58 | 326 | 0.0 | 2.0 | 0.01 | 0.35 | 0.35 | 93 | 1010.7 |
| 20260509185306 | 58 | 312 | 1.0 | 3.0 | 0.01 | 0.35 | 0.35 | 93 | 1010.6 |
| 20260509184803 | 58 | 318 | 2.0 | 3.0 | 0.01 | 0.35 | 0.35 | 93 | 1010.4 |
| 20260509183803 | 58 | 332 | 0.0 | 1.0 | 0.01 | 0.35 | 0.35 | 92 | 1010.1 |
| 20260509182803 | 58 | 326 | 1.0 | 2.0 | 0.01 | 0.35 | 0.35 | 91 | 1009.9 |
| 20260509182306 | 59 | 324 | 0.0 | 1.0 | 0.02 | 0.35 | 0.35 | 91 | 1009.7 |
| 20260509181803 | 59 | 323 | 0.0 | 2.0 | 0.02 | 0.35 | 0.35 | 90 | 1009.6 |
| 20260509181303 | 58 | 326 | 0.0 | 2.0 | 0.02 | 0.35 | 0.35 | 90 | 1009.5 |
| 20260509180803 | 58 | 296 | 0.0 | 3.0 | 0.02 | 0.35 | 0.35 | 90 | 1009.5 |
| 20260509180304 | 58 | 328 | 0.0 | 2.0 | 0.03 | 0.35 | 0.35 | 91 | 1009.3 |
| 20260509175803 | 59 | 304 | 0.0 | 1.0 | 0.03 | 0.35 | 0.35 | 91 | 1009.3 |
| 20260509175306 | 59 | 304 | 0.0 | 3.0 | 0.04 | 0.35 | 0.35 | 91 | 1009.4 |
| 20260509174804 | 59 | 319 | 1.0 | 3.0 | 0.05 | 0.35 | 0.35 | 90 | 1009.4 |
| 20260509174304 | 59 | 319 | 1.0 | 3.0 | 0.06 | 0.35 | 0.35 | 89 | 1009.4 |
| 20260509173803 | 59 | 290 | 0.0 | 2.0 | 0.06 | 0.35 | 0.35 | 89 | 1009.2 |
| 20260509173303 | 59 | 286 | 2.0 | 8.0 | 0.07 | 0.35 | 0.35 | 89 | 1009.1 |
| 20260509172804 | 59 | 280 | 2.0 | 6.0 | 0.09 | 0.35 | 0.35 | 89 | 1009.0 |
| 20260509172306 | 59 | 273 | 2.0 | 3.0 | 0.09 | 0.34 | 0.34 | 90 | 1009.0 |
| 20260509171803 | 58 | 269 | 1.0 | 3.0 | 0.11 | 0.34 | 0.34 | 91 | 1009.1 |
| 20260509171303 | 58 | 272 | 0.0 | 1.0 | 0.11 | 0.33 | 0.33 | 92 | 1009.3 |
| 20260509170803 | 58 | 273 | 0.0 | 2.0 | 0.11 | 0.33 | 0.33 | 92 | 1009.5 |
| 20260509170303 | 58 | 273 | 1.0 | 2.0 | 0.11 | 0.32 | 0.32 | 92 | 1009.7 |
| 20260509165803 | 58 | 274 | 3.0 | 5.0 | 0.11 | 0.31 | 0.31 | 92 | 1009.9 |
| 20260509164803 | 58 | 282 | 1.0 | 1.0 | 0.13 | 0.30 | 0.30 | 92 | 1010.5 |
| 20260509163803 | 58 | 271 | 1.0 | 3.0 | 0.13 | 0.28 | 0.28 | 92 | 1010.9 |
| 20260509163303 | 59 | 268 | 1.0 | 2.0 | 0.15 | 0.28 | 0.28 | 92 | 1011.1 |
| 20260509162306 | 59 | 284 | 0.0 | 2.0 | 0.17 | 0.24 | 0.24 | 91 | 1011.4 |
| 20260509161304 | 58 | 336 | 0.0 | 1.0 | 0.16 | 0.22 | 0.22 | 91 | 1011.8 |
| 20260509160304 | 59 | 336 | 0.0 | 0.0 | 0.17 | 0.21 | 0.21 | 90 | 1012.1 |
| 20260509155804 | 59 | 336 | 0.0 | 2.0 | 0.17 | 0.20 | 0.20 | 90 | 1012.2 |
| 20260509155306 | 59 | 335 | 1.0 | 2.0 | 0.16 | 0.19 | 0.19 | 90 | 1012.2 |
| 20260509154803 | 59 | 253 | 0.0 | 3.0 | 0.13 | 0.17 | 0.17 | 90 | 1012.2 |
| 20260509154304 | 59 | 311 | 1.0 | 3.0 | 0.13 | 0.16 | 0.16 | 89 | 1012.1 |
| 20260509153304 | 59 | 306 | 1.0 | 6.0 | 0.10 | 0.13 | 0.13 | 89 | 1012.2 |
| 20260509152804 | 60 | 314 | 3.0 | 6.0 | 0.09 | 0.10 | 0.10 | 88 | 1012.2 |
| 20260509151804 | 61 | 320 | 2.0 | 6.0 | 0.06 | 0.07 | 0.07 | 86 | 1011.6 |
| 20260509151305 | 61 | 312 | 0.0 | 1.0 | 0.06 | 0.06 | 0.06 | 84 | 1010.9 |
| 20260509150803 | 61 | 264 | 0.0 | 2.0 | 0.06 | 0.06 | 0.06 | 84 | 1010.1 |
| 20260509150303 | 61 | 292 | 1.0 | 3.0 | 0.04 | 0.04 | 0.04 | 83 | 1009.7 |
| 20260509145803 | 61 | 285 | 1.0 | 3.0 | 0.04 | 0.04 | 0.04 | 84 | 1009.5 |
| 20260509145306 | 61 | 277 | 1.0 | 3.0 | 0.03 | 0.03 | 0.03 | 84 | 1009.4 |
| 20260509144804 | 61 | 324 | 0.0 | 1.0 | 0.03 | 0.03 | 0.03 | 84 | 1009.4 |
| 20260509143803 | 62 | 296 | 1.0 | 5.0 | 0.03 | 0.03 | 0.03 | 82 | 1009.6 |
| 20260509143303 | 62 | 320 | 1.0 | 3.0 | 0.02 | 0.02 | 0.02 | 82 | 1009.7 |
| 20260509142803 | 62 | 283 | 1.0 | 5.0 | 0.02 | 0.02 | 0.02 | 81 | 1009.8 |
| 20260509141803 | 63 | 300 | 1.0 | 3.0 | 0.01 | 0.01 | 0.01 | 77 | 1010.2 |
| 20260509141303 | 64 | 319 | 2.0 | 5.0 | 0.01 | 0.01 | 0.01 | 74 | 1010.3 |
| 20260509140803 | 64 | 322 | 2.0 | 3.0 | 0.00 | 0.00 | 0.00 | 72 | 1010.4 |
| 20260509140303 | 65 | 317 | 2.0 | 5.0 | 0.00 | 0.00 | 0.00 | 69 | 1010.5 |
| 20260509135306 | 65 | 320 | 2.0 | 3.0 | 0.00 | 0.00 | 0.00 | 68 | 1011.0 |
| 20260509134304 | 66 | 324 | 1.0 | 3.0 | 0.00 | 0.00 | 0.00 | 66 | 1011.1 |
| 20260509133803 | 66 | 318 | 2.0 | 5.0 | 0.00 | 0.00 | 0.00 | 65 | 1011.4 |
| 20260509133304 | 66 | 326 | 1.0 | 3.0 | 0.00 | 0.00 | 0.00 | 64 | 1011.5 |
| 20260509132804 | 66 | 324 | 0.0 | 3.0 | 0.00 | 0.00 | 0.00 | 65 | 1011.4 |
| 20260509132306 | 66 | 318 | 1.0 | 3.0 | 0.00 | 0.00 | 0.00 | 64 | 1011.3 |
| 20260509131304 | 67 | 331 | 0.0 | 5.0 | 0.00 | 0.00 | 0.00 | 63 | 1011.2 |
| 20260509130804 | 67 | 312 | 1.0 | 3.0 | 0.00 | 0.00 | 0.00 | 63 | 1011.2 |
| 20260509130303 | 67 | 324 | 1.0 | 3.0 | 0.00 | 0.00 | 0.00 | 63 | 1011.1 |
| 20260509125803 | 67 | 322 | 2.0 | 5.0 | 0.00 | 0.00 | 0.00 | 63 | 1010.9 |
| 20260509124804 | 67 | 281 | 2.0 | 6.0 | 0.00 | 0.00 | 0.00 | 63 | 1010.6 |
| 20260509123304 | 66 | 285 | 2.0 | 5.0 | 0.00 | 0.00 | 0.00 | 67 | 1010.4 |
| 20260509122804 | 66 | 290 | 0.0 | 2.0 | 0.00 | 0.00 | 0.00 | 69 | 1010.4 |
| 20260509122306 | 66 | 327 | 2.0 | 5.0 | 0.00 | 0.00 | 0.00 | 68 | 1010.7 |
| 20260509121803 | 67 | 302 | 2.0 | 3.0 | 0.00 | 0.00 | 0.00 | 69 | 1010.8 |
| 20260509121303 | 67 | 322 | 3.0 | 6.0 | 0.00 | 0.00 | 0.00 | 69 | 1011.2 |
| 20260509120804 | 67 | 316 | 2.0 | 8.0 | 0.00 | 0.00 | 0.00 | 67 | 1011.5 |
| 20260509120303 | 67 | 290 | 2.0 | 3.0 | 0.00 | 0.00 | 0.00 | 66 | 1011.6 |
| 20260509115804 | 67 | 325 | 2.0 | 5.0 | 0.00 | 0.00 | 0.00 | 65 | 1011.8 |
| 20260509115306 | 67 | 308 | 2.0 | 7.0 | 0.00 | 0.00 | 0.00 | 64 | 1012.0 |
| 20260509114803 | 67 | 324 | 2.0 | 5.0 | 0.00 | 0.00 | 0.00 | 64 | 1012.1 |
| 20260509113804 | 67 | 316 | 2.0 | 9.0 | 0.00 | 0.00 | 0.00 | 65 | 1012.2 |
| 20260509113304 | 67 | 312 | 2.0 | 6.0 | 0.00 | 0.00 | 0.00 | 66 | 1012.3 |
| 20260509112306 | 67 | 319 | 3.0 | 7.0 | 0.00 | 0.00 | 0.00 | 65 | 1012.5 |
| 20260509111804 | 67 | 324 | 3.0 | 6.0 | 0.00 | 0.00 | 0.00 | 66 | 1012.5 |
| 20260509110303 | 67 | 326 | 2.0 | 7.0 | 0.00 | 0.00 | 0.00 | 70 | 1012.2 |
| 20260509105804 | 67 | 322 | 2.0 | 6.0 | 0.00 | 0.00 | 0.00 | 70 | 1012.2 |
| 20260509105306 | 67 | 310 | 2.0 | 5.0 | 0.00 | 0.00 | 0.00 | 70 | 1012.3 |
| 20260509104803 | 67 | 320 | 1.0 | 5.0 | 0.00 | 0.00 | 0.00 | 70 | 1012.3 |
| 20260509104304 | 67 | 322 | 2.0 | 3.0 | 0.00 | 0.00 | 0.00 | 69 | 1012.3 |
| 20260509103803 | 68 | 321 | 2.0 | 6.0 | 0.00 | 0.00 | 0.00 | 69 | 1012.4 |
| 20260509103303 | 68 | 314 | 1.0 | 5.0 | 0.00 | 0.00 | 0.00 | 69 | 1012.5 |
| 20260509102803 | 68 | 324 | 2.0 | 6.0 | 0.00 | 0.00 | 0.00 | 69 | 1012.5 |
| 20260509102306 | 68 | 314 | 2.0 | 3.0 | 0.00 | 0.00 | 0.00 | 68 | 1012.4 |
| 20260509101803 | 68 | 315 | 2.0 | 8.0 | 0.00 | 0.00 | 0.00 | 67 | 1012.4 |
| 20260509100305 | 68 | 314 | 1.0 | 3.0 | 0.00 | 0.00 | 0.00 | 67 | 1012.3 |
| 20260509095803 | 68 | 325 | 2.0 | 6.0 | 0.00 | 0.00 | 0.00 | 67 | 1012.3 |
| 20260509095306 | 68 | 320 | 2.0 | 5.0 | 0.00 | 0.00 | 0.00 | 66 | 1012.1 |
| 20260509093803 | 68 | 320 | 2.0 | 3.0 | 0.00 | 0.00 | 0.00 | 65 | 1012.2 |
| 20260509093304 | 68 | 288 | 1.0 | 3.0 | 0.00 | 0.00 | 0.00 | 64 | 1012.0 |
| 20260509092804 | 68 | 294 | 0.0 | 5.0 | 0.00 | 0.00 | 0.00 | 65 | 1012.0 |
| 20260509092306 | 68 | 285 | 0.0 | 2.0 | 0.00 | 0.00 | 0.00 | 65 | 1012.0 |
| 20260509091804 | 68 | 321 | 1.0 | 3.0 | 0.00 | 0.00 | 0.00 | 66 | 1011.9 |
| 20260509091304 | 67 | 295 | 0.0 | 6.0 | 0.00 | 0.00 | 0.00 | 67 | 1012.1 |
| 20260509090803 | 67 | 284 | 2.0 | 6.0 | 0.00 | 0.00 | 0.00 | 67 | 1012.0 |
| 20260509090304 | 67 | 283 | 0.0 | 2.0 | 0.00 | 0.00 | 0.00 | 68 | 1011.8 |
| 20260509085804 | 67 | 328 | 1.0 | 3.0 | 0.00 | 0.00 | 0.00 | 67 | 1011.8 |
| 20260509084803 | 67 | 320 | 1.0 | 3.0 | 0.00 | 0.00 | 0.00 | 67 | 1011.9 |
| 20260509083804 | 66 | 274 | 1.0 | 3.0 | 0.00 | 0.00 | 0.00 | 68 | 1011.9 |
| 20260509083304 | 66 | 274 | 2.0 | 6.0 | 0.00 | 0.00 | 0.00 | 66 | 1012.0 |
| 20260509082804 | 67 | 286 | 1.0 | 2.0 | 0.00 | 0.00 | 0.00 | 66 | 1012.0 |
| 20260509082306 | 67 | 318 | 0.0 | 1.0 | 0.00 | 0.00 | 0.00 | 67 | 1012.0 |
| 20260509081804 | 66 | 322 | 0.0 | 3.0 | 0.00 | 0.00 | 0.00 | 68 | 1011.9 |
| 20260509081304 | 66 | 315 | 2.0 | 5.0 | 0.00 | 0.00 | 0.00 | 69 | 1011.7 |
| 20260509080804 | 66 | 312 | 1.0 | 2.0 | 0.00 | 0.00 | 0.00 | 69 | 1011.7 |
| 20260509080304 | 65 | 287 | 0.0 | 3.0 | 0.00 | 0.00 | 0.00 | 71 | 1011.6 |
| 20260509075803 | 64 | 321 | 1.0 | 2.0 | 0.00 | 0.00 | 0.00 | 71 | 1011.7 |
| 20260509075306 | 63 | 282 | 2.0 | 3.0 | 0.00 | 0.00 | 0.00 | 73 | 1011.7 |